This demonstration page uses our WeatherBlox Daily Observations layout. Learn more.

Left ArrowRight Arrow

38.88101, -77.10428

Hourly Observations for May 15, 2016

Temp ( °F °C ) Dew Point ( °F °C ) Humidity (%) Winds ( mph kmh ) Pressure ( in mb ) Visibility ( mi km ) Precip ( " mm )
12:52 am 00:52 Mostly Clear 52 11.1 39 3.9 61 61 NW 12 19 29.85 1011 10 16 N/A
1:52 am 01:52 Mostly Clear 51 10.6 39 3.9 64 64 NNW 14 22 29.87 1012 10 16 N/A
2:52 am 02:52 Partly Cloudy 51 10.6 39 3.9 64 64 W 12 19 29.88 1012 10 16 N/A
3:52 am 03:52 Partly Cloudy 49 9.4 37 2.8 64 64 W 7 11 29.90 1013 10 16 N/A
4:52 am 04:52 Partly Cloudy 49 9.4 36 2.2 61 61 W 9 15 29.93 1014 10 16 N/A
5:52 am 05:52 Clear 49 9.4 33 0.6 55 55 W 8 13 29.94 1014 10 16 N/A
6:52 am 06:52 Partly Cloudy 50 10 33 0.6 52 52 N N/A 29.95 1014 10 16 N/A
7:52 am 07:52 Mostly Cloudy 53 11.7 34 1.1 48 48 W 8 13 29.96 1015 10 16 N/A
8:49 am 08:49 Partly Cloudy 54 12 32 undefined 44 44 W 18 30 29.97 1015 10 16 N/A
8:52 am 08:52 Partly Cloudy 53 11.7 32 undefined 45 45 W 17 28 29.98 1015 10 16 N/A
9:52 am 09:52 Mostly Cloudy 53 11.7 28 -2.2 38 38 WNW 23 37 29.98 1015 10 16 N/A
10:52 am 10:52 Mostly Cloudy 56 13.3 29 -1.7 36 36 WNW 24 39 29.97 1015 10 16 N/A
11:52 am 11:52 Mostly Cloudy with Haze 58 14.4 29 -1.7 33 33 WNW 14 22 29.97 1015 1 2 N/A
11:58 am 11:58 Partly Cloudy 55 13 27 -3 33 33 WNW 20 31 29.97 1015 10 16 N/A
12:52 pm 12:52 Mostly Cloudy 59 15 28 -2.2 31 31 W 23 37 29.96 1014 10 16 N/A
1:52 pm 13:52 Mostly Cloudy 57 13.9 27 -2.8 32 32 W 24 39 29.95 1014 10 16 N/A
2:52 pm 14:52 Mostly Cloudy 61 16.1 30 -1.1 31 31 W 14 22 29.95 1014 10 16 N/A
3:52 pm 15:52 Partly Cloudy 61 16.1 28 -2.2 29 29 W 22 35 29.94 1014 10 16 N/A
4:52 pm 16:52 Mostly Cloudy 60 15.6 28 -2.2 30 30 W 12 19 29.95 1014 10 16 N/A
5:52 pm 17:52 Mostly Cloudy 59 15 30 -1.1 33 33 W 12 19 29.96 1015 10 16 N/A
6:52 pm 18:52 Mostly Cloudy 58 14.4 28 -2.2 32 32 W 10 17 29.98 1015 10 16 N/A
7:52 pm 19:52 Mostly Cloudy 57 13.9 28 -2.2 33 33 W 12 19 30.00 1016 10 16 N/A
8:52 pm 20:52 Mostly Cloudy 56 13.3 27 -2.8 33 33 WNW 13 20 30.04 1017 10 16 N/A
9:52 pm 21:52 Mostly Cloudy 55 12.8 26 -3.3 33 33 WNW 12 19 30.07 1018 10 16 N/A
10:52 pm 22:52 Mostly Clear 54 12.2 25 -3.9 33 33 WNW 12 19 30.10 1019 10 16 N/A
11:52 pm 23:52 Clear 50 10 29 -1.7 44 44 NNW 8 13 30.12 1020 10 16 N/A

Powered by AerisWeather